Temperature
12 11 11 12 13 13 13 13 14 14 16 15 14 15 16 16 16 16 17 19 20 20 21 21 21 20 20 19 19 18 17 16 15 14 13 12 12 12 11 11 11 10 10 10
10 11 13 13 13 13 13 13 13 14 15 15 14 14 15 15 15 17 17 18 20 20 21 21 21 21 20 20 19 19 18 17 16 15 15 14 13 12 12 11 11 10 10 10
10 12 13 13 13 13 13 12 13 13 15 15 15 14 14 14 16 17 18 19 19 20 20 21 21 21 20 20 20 19 19 18 17 16 14 13 12 11 11 11 10 10 10 10
11 12 13 13 13 13 13 14 14 14 14 13 14 12 13 14 14 15 16 18 19 20 20 20 21 21 20 20 20 20 19 18 17 16 14 13 12 12 12 11 11 10 10 10
10 11 12 13 13 13 13 14 14 14 13 12 12 12 12 13 14 15 15 17 19 20 20 20 20 20 20 20 20 20 19 18 17 16 15 14 13 13 12 11 11 10 10 10
11 12 13 13 14 14 14 14 13 12 12 11 12 11 11 12 14 15 16 17 19 20 20 20 20 20 20 20 19 19 19 18 17 16 15 14 14 13 12 11 11 10 10 10
10 11 12 13 13 13 13 12 11 10 10 10 11 11 12 13 14 15 16 17 19 20 20 20 20 20 20 19 19 19 18 18 17 16 15 15 14 13 13 12 11 11 10 10
9 10 11 12 13 12 13 12 11 11 10 10 11 11 12 13 15 16 17 18 19 19 20 20 20 20 20 19 19 18 18 17 17 16 15 14 14 13 12 12 11 11 11 11
9 9 11 12 13 13 12 13 12 11 10 10 10 11 12 13 14 14 15 17 17 19 19 19 19 19 19 19 19 18 18 17 17 16 15 14 13 13 12 12 11 11 11 11
8 8 10 11 12 13 13 12 12 11 10 10 10 10 12 14 14 14 14 15 17 18 19 19 19 19 19 18 18 17 17 17 16 16 15 14 13 12 12 11 11 11 10 10
7 8 9 11 11 11 12 12 12 11 10 10 10 11 13 14 14 14 14 16 17 18 19 19 19 19 18 18 17 17 16 16 15 15 14 14 13 12 11 11 11 11 10 10
7 7 8 9 11 12 11 11 11 11 9 9 9 11 14 13 14 14 14 17 18 18 19 19 18 18 18 17 17 16 16 15 15 15 14 13 12 11 11 11 10 10 10 10
6 6 7 8 9 10 10 10 10 10 9 9 10 11 13 13 13 14 15 16 17 18 18 18 18 18 18 17 17 16 15 15 14 14 13 12 12 11 11 10 10 10 10 10
6 5 6 7 8 8 8 9 9 10 10 9 10 12 14 14 13 13 14 16 17 17 18 18 18 17 17 17 16 16 15 14 13 13 12 12 11 11 11 10 10 10 10 9
4 4 5 6 7 8 8 9 9 9 10 10 11 11 12 13 13 13 15 15 16 16 17 17 18 17 17 16 16 15 15 14 13 12 12 11 11 11 10 10 10 9 9 9
3 4 5 6 7 8 8 9 10 10 11 10 11 11 12 13 13 13 14 14 15 16 17 17 17 17 17 16 16 15 15 14 12 12 11 11 10 10 10 9 9 9 9 9
2 3 4 5 7 7 7 9 10 10 11 11 11 12 12 12 12 13 14 15 15 16 17 17 17 17 17 17 16 15 15 13 12 11 11 10 10 10 9 9 9 9 9 9
2 3 3 4 5 5 8 9 10 10 10 11 11 11 12 12 13 15 16 16 16 17 17 17 17 17 17 17 16 15 14 13 12 11 10 10 10 9 9 9 9 9 9 8
3 3 3 3 4 5 7 8 9 9 9 10 10 11 11 12 13 14 15 16 16 17 17 17 17 17 17 17 16 15 14 13 12 11 11 10 10 9 9 9 8 8 8 8
3 3 3 3 4 6 8 8 9 9 9 9 9 10 10 10 10 12 14 14 15 16 16 16 17 16 16 16 16 15 14 13 13 12 11 11 10 9 9 8 8 8 8 8
3 2 2 3 4 5 7 8 9 8 9 9 9 9 9 9 11 13 13 14 14 15 15 16 16 16 16 16 15 15 14 14 13 12 11 10 9 9 8 8 8 7 7 7
2 2 2 3 4 5 7 7 8 8 9 10 10 10 10 10 11 12 12 13 14 14 14 15 15 15 15 15 15 14 14 14 13 12 11 10 9 8 8 7 7 7 7 6
3 3 3 3 5 6 7 7 8 9 9 10 11 11 11 10 11 11 12 12 13 13 14 14 15 15 15 14 14 14 14 13 12 11 10 9 9 8 7 7 7 6 6 6
2 3 2 3 4 5 6 7 8 8 9 10 10 11 11 11 11 11 11 12 12 12 13 14 14 14 14 14 13 13 13 12 11 10 10 9 8 7 7 6 6 6 6 5
1 2 2 2 4 5 6 7 8 8 8 9 10 10 11 11 11 11 11 11 12 12 12 13 13 13 13 13 12 12 12 11 10 10 9 8 7 7 6 6 5 5 5 5
1 2 2 3 4 4 5 7 7 7 8 8 9 10 10 10 11 11 11 11 11 11 12 12 12 12 12 12 11 11 10 10 10 9 8 8 7 6 6 5 5 4 4 4
Wind_Speed
10 10 17 22 20 11 9 8 9 8 7 7 12 15 16 12 10 12 13 13 13 15 15 13 15 16 16 17 19 22 22 21 19 17 16 15 15 13 12 12 17 20 19 19
8 21 23 13 12 12 10 11 10 7 6 7 10 15 14 13 12 13 14 15 15 14 13 12 12 13 16 19 21 23 23 23 23 19 17 14 12 10 10 9 14 19 19 19
20 13 15 14 13 16 16 15 14 8 4 4 4 9 11 10 10 11 12 13 12 15 16 14 12 13 15 18 21 22 24 23 23 18 13 9 7 6 7 11 12 13 18 19
17 12 15 17 17 18 21 16 12 10 7 6 5 8 10 9 10 12 13 13 14 15 15 13 13 13 16 19 19 21 23 22 22 20 18 19 15 13 12 12 10 11 16 17
14 14 18 22 22 20 10 10 12 11 10 9 7 7 9 7 12 13 14 16 16 15 15 15 14 15 15 16 17 19 20 21 20 21 22 21 15 12 8 9 12 12 11 14
13 10 15 16 15 15 8 6 5 5 5 13 16 11 9 9 13 10 13 15 15 14 14 14 12 11 12 12 14 15 18 20 21 22 22 22 19 15 13 13 14 12 9 10
12 15 12 9 12 12 11 9 6 7 9 12 10 10 11 11 12 15 15 15 15 13 12 11 11 11 11 13 14 15 18 19 20 22 22 22 21 20 19 16 16 13 10 9
13 13 16 12 15 14 19 17 12 9 9 5 7 12 10 11 13 13 14 13 12 11 10 11 11 12 12 14 15 16 18 17 20 21 21 19 19 16 15 15 14 15 12 12
11 11 8 12 10 15 16 17 11 6 4 4 7 7 8 7 10 11 12 11 12 11 11 10 10 10 11 13 14 16 18 16 18 20 19 18 18 17 15 14 13 13 10 10
4 7 7 9 8 13 15 13 8 9 9 8 7 7 7 8 13 12 12 12 12 10 9 9 9 9 9 10 11 12 14 16 15 17 17 16 17 17 15 14 15 14 13 12
3 5 5 9 12 15 11 14 9 9 7 8 6 8 9 12 13 13 14 13 12 11 10 9 9 8 8 7 9 10 11 12 13 15 15 15 15 15 15 15 16 15 14 14
5 3 6 11 9 10 8 11 11 12 9 8 6 9 7 11 12 12 12 11 9 10 8 8 8 7 7 8 9 10 11 12 13 13 13 14 14 14 15 15 15 15 15 15
3 3 3 4 3 5 7 7 9 8 6 7 8 10 4 5 6 8 9 8 8 8 7 6 6 8 8 9 9 10 11 12 11 12 13 13 13 15 15 15 14 15 15 14
3 4 7 10 8 8 10 9 9 8 10 11 14 12 6 5 6 6 7 8 8 8 8 8 8 8 8 9 9 10 10 10 11 12 13 14 14 14 14 13 14 14 15 15
1 6 7 9 9 7 10 13 13 13 16 15 15 15 13 10 9 8 7 7 6 7 8 9 10 9 9 9 9 9 10 10 11 12 13 13 12 11 12 12 13 13 14 14
2 5 7 10 10 9 10 14 17 20 19 17 14 15 11 10 7 8 9 9 9 10 11 11 10 10 11 11 11 10 11 11 11 12 12 11 11 11 12 12 13 13 13 12
4 3 5 8 8 7 13 17 18 15 15 17 20 19 6 9 11 12 11 11 12 12 12 12 13 13 13 12 12 12 12 10 11 11 11 11 12 12 12 12 12 13 13 12
7 7 4 4 4 11 11 8 10 14 16 15 15 11 10 11 10 11 11 13 13 12 11 12 11 11 11 10 10 10 10 11 11 11 11 11 12 12 11 12 13 12 10 11
12 8 5 4 6 8 8 7 12 13 14 12 14 11 9 7 7 10 9 9 11 12 11 11 11 11 10 10 11 10 10 11 11 12 12 12 12 12 12 13 12 9 10 10
10 8 6 5 6 10 8 5 5 6 11 7 9 10 7 4 9 13 8 8 9 7 7 7 7 7 8 9 11 12 12 12 13 13 12 11 12 13 13 12 10 7 8 9
5 7 9 8 7 8 6 4 5 9 10 7 10 10 8 10 14 10 7 8 8 8 7 7 7 8 9 10 12 12 12 13 12 10 10 10 11 11 10 9 8 9 8 8
5 6 7 7 8 9 3 2 7 7 5 5 7 9 10 12 11 7 7 7 7 6 6 6 7 6 6 10 12 12 12 10 9 10 10 10 10 9 8 10 9 9 9 9
7 6 4 7 9 6 4 5 8 6 6 6 5 6 7 8 8 7 6 6 6 6 6 6 8 7 5 8 11 13 10 10 11 11 10 10 9 8 9 10 10 8 8 7
5 3 4 6 10 11 11 9 8 7 8 7 6 5 5 6 6 6 5 4 4 4 5 6 8 8 6 7 8 9 10 11 12 12 10 10 10 9 8 7 8 8 8 7
7 4 6 9 11 10 10 9 9 9 9 8 6 5 5 5 5 5 5 5 5 4 4 6 8 9 8 7 8 8 10 12 12 11 10 9 9 9 8 6 6 8 7 9
9 10 10 11 9 8 12 12 11 10 11 9 7 6 4 4 5 4 4 4 4 5 5 6 7 8 8 8 8 8 10 12 13 11 10 8 7 7 7 7 4 4 5 7
Wind_Direction
185 187 208 209 206 201 190 196 216 225 223 205 226 238 245 238 228 233 238 239 238 236 237 226 217 211 204 199 195 192 190 187 183 185 185 187 191 190 189 190 190 190 189 185
184 214 215 205 199 203 212 220 228 250 233 218 238 247 247 239 227 226 230 233 235 238 241 231 219 207 199 197 195 193 191 188 187 190 190 190 184 185 187 186 190 190 188 186
206 212 197 195 197 205 217 219 222 227 270 262 256 271 256 253 237 237 234 231 232 230 232 228 218 209 200 198 195 194 192 190 190 186 178 165 155 158 178 190 193 191 189 187
220 217 188 198 207 202 224 216 212 220 229 251 217 264 261 246 250 242 241 238 237 235 231 226 219 211 204 202 197 194 192 190 189 182 180 180 186 190 192 188 188 186 187 186
216 198 199 206 208 201 212 194 207 217 222 245 238 244 263 237 242 243 239 237 237 235 228 225 220 213 207 200 195 194 190 190 187 185 186 187 191 190 175 173 179 185 187 186
228 214 203 212 210 203 187 162 200 222 216 240 231 224 261 221 221 232 236 237 236 234 228 225 221 212 206 196 192 190 188 190 188 188 188 190 189 180 173 178 185 188 188 188
226 232 221 194 192 196 183 173 194 206 217 237 210 215 246 224 217 219 229 234 232 229 222 220 213 205 200 193 190 189 188 190 189 189 191 192 191 185 185 185 188 186 187 191
204 220 214 204 196 193 195 188 194 197 205 233 189 220 243 228 224 224 228 228 227 225 220 216 212 206 200 195 190 187 190 190 189 190 193 192 189 190 192 189 188 191 194 193
204 225 204 208 190 178 189 202 192 176 187 203 226 251 282 232 230 230 228 226 225 223 218 215 211 205 199 193 191 189 189 189 190 191 190 190 190 190 190 187 186 190 188 185
202 226 214 201 184 196 190 177 171 189 194 220 242 234 230 213 216 222 223 223 225 221 216 214 208 203 198 194 190 188 189 190 188 189 190 191 192 191 188 185 189 189 186 181
233 217 225 190 193 192 180 184 179 179 191 190 225 246 217 205 209 213 221 223 218 215 213 210 207 200 190 181 179 184 187 186 186 188 188 187 189 188 187 189 191 189 185 183
236 230 230 221 216 198 186 183 177 193 203 193 204 253 231 209 213 208 216 221 214 209 207 202 194 182 181 183 184 186 187 187 187 185 184 186 185 185 189 191 189 186 185 185
268 235 228 228 205 189 192 190 194 192 174 186 205 247 246 209 216 211 209 210 207 201 196 190 186 189 192 191 188 189 190 190 184 180 182 185 186 187 191 190 185 184 183 183
238 227 218 221 226 208 218 225 208 192 206 213 220 231 234 227 223 227 219 209 204 203 197 192 197 202 201 197 193 191 191 186 181 181 184 189 190 190 190 186 182 183 182 182
233 235 241 260 266 240 237 227 217 219 215 215 226 227 231 229 224 225 227 219 210 213 212 208 205 206 204 201 198 194 191 185 181 183 189 193 189 185 182 181 181 180 181 183
224 245 254 256 246 243 250 233 223 224 223 225 234 240 230 231 227 230 225 216 218 221 217 215 211 206 207 205 200 194 191 186 181 186 191 185 180 180 181 179 177 177 179 178
217 227 239 246 250 242 236 221 215 221 222 219 230 235 212 219 219 224 224 221 217 222 221 215 210 208 208 204 197 194 190 179 181 186 184 179 178 179 178 173 173 177 178 175
215 217 225 241 228 227 237 221 218 229 235 226 235 236 218 223 230 229 218 216 221 219 218 217 212 208 207 197 189 184 174 176 180 182 180 177 175 175 171 171 175 176 174 177
209 204 203 207 223 255 268 230 203 211 236 227 235 243 241 238 243 245 229 218 221 219 214 213 211 208 198 188 179 169 172 175 178 183 183 179 175 172 172 176 177 172 171 176
195 197 202 204 212 230 242 240 209 194 240 239 235 244 245 198 231 247 242 235 232 227 217 210 206 195 187 184 167 167 175 178 187 186 181 175 173 173 176 177 170 161 167 171
188 198 209 217 228 255 266 263 142 191 237 256 236 236 228 219 235 251 236 232 227 226 218 202 186 187 191 175 164 172 178 190 188 170 163 165 170 172 169 163 156 155 155 158
207 207 207 206 221 243 277 132 181 237 280 267 246 235 232 241 249 249 236 225 217 214 209 187 176 186 181 167 166 173 186 184 158 153 156 160 161 159 155 154 153 155 157 162
212 209 214 214 231 270 278 264 272 281 277 271 257 253 238 245 253 255 247 228 218 206 197 182 171 170 167 169 170 175 180 155 147 149 154 154 151 151 153 156 156 158 161 167
243 218 222 251 260 276 282 280 285 289 283 274 270 262 232 236 243 245 238 228 216 207 189 174 161 160 166 167 167 168 155 147 145 149 150 149 149 148 148 152 158 163 169 171
226 216 236 256 271 280 269 264 277 287 298 298 287 262 237 226 242 236 230 223 213 203 186 171 168 167 166 158 155 149 145 143 143 145 146 146 148 150 150 151 164 170 179 179
229 222 229 248 254 263 273 278 282 284 283 279 277 277 263 230 229 234 222 221 210 188 171 161 159 156 152 147 145 141 143 144 144 145 146 148 147 147 148 143 121 121 144 164
Height
1448 1454 1452 1449 1452 1457 1460 1463 1464 1460 1455 1458 1460 1458 1453 1452 1453 1453 1453 1453 1454 1455 1457 1460 1463 1466 1468 1471 1473 1476 1479 1483 1487 1491 1495 1498 1502 1506 1510 1514 1517 1521 1524 1527
1446 1442 1437 1443 1448 1453 1457 1460 1461 1457 1453 1455 1458 1454 1448 1446 1446 1445 1445 1446 1447 1448 1450 1453 1455 1458 1460 1463 1466 1469 1472 1476 1479 1483 1487 1491 1496 1500 1505 1509 1513 1517 1520 1523
1431 1427 1433 1440 1445 1450 1451 1454 1456 1458 1453 1452 1455 1454 1447 1441 1439 1439 1438 1438 1439 1440 1442 1444 1447 1450 1452 1455 1458 1461 1464 1468 1472 1477 1482 1488 1493 1498 1501 1504 1507 1511 1515 1519
1427 1425 1428 1434 1436 1440 1443 1442 1448 1453 1458 1460 1457 1462 1447 1439 1435 1433 1431 1431 1431 1433 1434 1436 1439 1442 1444 1447 1451 1454 1457 1461 1466 1471 1475 1479 1483 1486 1490 1495 1501 1506 1510 1514
1418 1418 1422 1424 1425 1430 1434 1437 1444 1448 1454 1459 1456 1460 1445 1436 1433 1427 1424 1423 1423 1424 1426 1428 1430 1433 1436 1440 1443 1447 1451 1454 1459 1463 1467 1472 1476 1480 1486 1492 1497 1501 1505 1509
1412 1412 1413 1415 1419 1425 1430 1438 1443 1448 1454 1459 1450 1456 1443 1432 1423 1419 1417 1415 1415 1417 1418 1420 1423 1426 1429 1432 1436 1439 1443 1447 1452 1456 1460 1465 1469 1474 1480 1485 1490 1495 1500 1504
1409 1408 1407 1409 1417 1422 1427 1439 1452 1456 1456 1450 1440 1445 1430 1417 1411 1409 1409 1408 1408 1410 1412 1413 1416 1419 1421 1425 1428 1432 1436 1440 1445 1449 1454 1458 1463 1469 1473 1478 1483 1488 1493 1497
1407 1405 1400 1401 1403 1411 1416 1425 1438 1444 1446 1444 1438 1434 1417 1406 1401 1401 1401 1402 1403 1404 1406 1408 1410 1413 1415 1418 1421 1425 1429 1433 1438 1442 1447 1452 1458 1463 1468 1473 1478 1482 1486 1491
1401 1398 1391 1391 1392 1400 1410 1415 1418 1431 1436 1439 1434 1423 1410 1400 1399 1397 1397 1397 1398 1399 1401 1403 1405 1407 1410 1413 1415 1419 1422 1427 1431 1436 1441 1446 1452 1457 1462 1467 1473 1477 1482 1487
1398 1399 1389 1388 1390 1391 1396 1405 1416 1425 1433 1435 1429 1422 1410 1397 1395 1393 1393 1393 1393 1395 1396 1398 1401 1403 1405 1408 1411 1414 1418 1421 1425 1431 1436 1441 1446 1451 1457 1462 1467 1472 1477 1482
1396 1397 1389 1385 1385 1388 1394 1400 1404 1414 1420 1425 1427 1414 1389 1387 1386 1387 1387 1387 1388 1390 1392 1394 1397 1399 1402 1404 1407 1410 1413 1417 1421 1426 1431 1436 1441 1446 1452 1456 1461 1467 1472 1476
1396 1395 1391 1383 1378 1379 1384 1389 1396 1406 1412 1414 1417 1403 1377 1378 1378 1379 1381 1382 1384 1387 1389 1391 1394 1396 1398 1401 1403 1406 1409 1413 1416 1421 1426 1431 1436 1441 1446 1451 1456 1461 1466 1471
1398 1396 1394 1386 1384 1384 1384 1387 1390 1395 1403 1409 1409 1395 1374 1375 1375 1376 1378 1379 1381 1384 1387 1389 1391 1393 1395 1397 1400 1402 1405 1408 1412 1417 1421 1426 1430 1435 1440 1445 1451 1456 1461 1466
1396 1396 1393 1388 1381 1382 1384 1385 1387 1392 1395 1398 1393 1383 1375 1374 1375 1375 1375 1377 1379 1381 1383 1386 1388 1390 1392 1394 1396 1398 1401 1404 1408 1412 1416 1420 1424 1429 1435 1440 1446 1450 1455 1460
1395 1394 1389 1386 1381 1379 1378 1379 1381 1384 1382 1386 1379 1378 1373 1372 1373 1373 1374 1376 1377 1379 1381 1383 1384 1387 1389 1391 1393 1395 1397 1400 1403 1407 1411 1415 1420 1425 1430 1435 1440 1445 1450 1454
1394 1393 1389 1384 1378 1376 1374 1372 1373 1373 1373 1375 1374 1371 1365 1366 1368 1370 1372 1374 1375 1376 1377 1379 1381 1383 1385 1387 1389 1391 1393 1395 1399 1402 1406 1410 1415 1420 1425 1430 1435 1440 1445 1449
1394 1393 1391 1383 1376 1374 1372 1362 1362 1363 1362 1364 1364 1359 1362 1363 1364 1365 1366 1368 1370 1371 1373 1375 1377 1379 1381 1382 1384 1386 1389 1391 1394 1398 1402 1406 1411 1415 1420 1425 1430 1435 1439 1444
1389 1389 1390 1384 1379 1377 1358 1351 1354 1356 1354 1355 1354 1353 1356 1358 1359 1359 1361 1363 1364 1366 1368 1370 1372 1374 1377 1379 1381 1383 1385 1388 1390 1394 1397 1402 1406 1411 1416 1421 1425 1430 1434 1439
1380 1384 1386 1383 1377 1367 1355 1349 1349 1352 1351 1349 1350 1350 1352 1354 1356 1354 1355 1358 1359 1361 1363 1366 1368 1370 1372 1374 1376 1379 1381 1384 1386 1389 1393 1397 1402 1406 1411 1416 1420 1425 1429 1433
1373 1378 1382 1380 1375 1362 1346 1342 1341 1348 1349 1344 1346 1347 1350 1352 1356 1348 1349 1352 1353 1355 1358 1360 1362 1365 1367 1369 1372 1374 1377 1379 1382 1385 1389 1393 1398 1402 1407 1411 1416 1420 1425 1429
1372 1375 1376 1374 1369 1355 1344 1340 1340 1350 1342 1338 1339 1341 1344 1346 1344 1343 1345 1346 1347 1349 1352 1354 1356 1359 1362 1364 1367 1370 1372 1375 1378 1382 1386 1390 1395 1399 1404 1408 1413 1417 1421 1425
1368 1368 1368 1366 1364 1355 1340 1340 1341 1338 1335 1334 1334 1335 1336 1336 1336 1338 1338 1339 1341 1342 1345 1348 1350 1353 1356 1360 1362 1365 1368 1371 1375 1379 1383 1387 1391 1396 1401 1405 1409 1413 1417 1421
1361 1360 1358 1356 1349 1340 1337 1337 1336 1334 1333 1332 1330 1330 1331 1331 1331 1331 1332 1333 1335 1337 1339 1342 1345 1348 1352 1355 1358 1361 1364 1368 1372 1376 1380 1384 1389 1393 1398 1401 1405 1409 1412 1416
1356 1353 1353 1350 1341 1337 1335 1333 1332 1332 1331 1329 1328 1327 1327 1326 1326 1327 1327 1328 1329 1332 1334 1337 1341 1344 1347 1350 1354 1358 1361 1365 1369 1373 1377 1381 1386 1390 1394 1398 1402 1405 1408 1410
1350 1350 1349 1345 1339 1334 1330 1330 1330 1329 1327 1326 1325 1324 1324 1323 1323 1323 1323 1324 1325 1328 1331 1334 1336 1340 1343 1347 1351 1355 1359 1363 1366 1370 1374 1378 1383 1387 1390 1394 1398 1401 1404 1406
1342 1343 1343 1337 1333 1334 1329 1327 1327 1326 1324 1322 1322 1321 1321 1321 1320 1320 1320 1321 1322 1324 1327 1330 1333 1337 1340 1344 1348 1352 1356 1360 1364 1367 1371 1375 1380 1384 1387 1391 1395 1398 1401 1404